Retour au catalogue

FENGYUN 1C DEB

ActifSSO
NORAD 38724·DEBRIS·🇨🇳 China

Lancé May 10, 1999 depuis Taiyuan Satellite Launch Center

Loading…

Prochains Passages (prochaines 24 heures)

TLE

FraisSource: Space-Track

Époque: Sep 14, 2026, 11:33 UTC

1 38724U 99025ETR 26257.48172686  .00005185  00000-0  23560-2 0  9990
2 38724  98.7326 266.5174 0120136   2.1398 358.0267 14.18439876605292

Suivez FENGYUN 1C DEB en temps réel avec AllMySat

Download on the App Store